| time (UTC) | temp F | wind direction | speed MPH | gust MPH | rain 1hr in | rain 24hr in | rain mn in | humidity % | barometer mb |
| 20260504043211 | 46 | 204 | 0.0 | 0.0 | 0.00 | 0.00 | 0.00 | 88 | 1019.8 |
| 20260504040211 | 47 | 204 | 0.0 | 0.0 | 0.00 | 0.00 | 0.00 | 86 | 1019.7 |
| 20260504033211 | 47 | 204 | 0.0 | 0.0 | 0.00 | 0.00 | 0.00 | 84 | 1019.9 |
| 20260504030212 | 49 | 204 | 0.0 | 0.0 | 0.00 | 0.00 | 0.00 | 82 | 1019.8 |
| 20260504023211 | 50 | 204 | 0.0 | 0.0 | 0.00 | 0.00 | 0.00 | 82 | 1020.0 |
| 20260504020212 | 50 | 204 | 0.0 | 0.0 | 0.00 | 0.00 | 0.00 | 82 | 1019.8 |
| 20260504013211 | 50 | 204 | 0.0 | 0.0 | 0.00 | 0.00 | 0.00 | 80 | 1019.8 |
| 20260504010211 | 51 | 204 | 0.0 | 0.0 | 0.00 | 0.00 | 0.00 | 78 | 1019.7 |
| 20260504003210 | 52 | 204 | 0.0 | 0.0 | 0.00 | 0.00 | 0.00 | 78 | 1019.9 |
| 20260504000208 | 53 | 204 | 1.0 | 0.0 | 0.00 | 0.00 | 0.00 | 75 | 1020.1 |
| 20260503233209 | 53 | 204 | 0.0 | 0.0 | 0.00 | 0.00 | 0.00 | 72 | 1020.2 |
| 20260503230209 | 55 | 204 | 0.0 | 0.0 | 0.00 | 0.00 | 0.00 | 68 | 1020.5 |
| 20260503223210 | 56 | 204 | 1.0 | 0.0 | 0.00 | 0.00 | 0.00 | 66 | 1020.5 |
| 20260503220212 | 56 | 204 | 0.0 | 0.0 | 0.00 | 0.00 | 0.00 | 64 | 1020.3 |
| 20260503213210 | 57 | 204 | 2.0 | 0.0 | 0.00 | 0.00 | 0.00 | 62 | 1020.1 |
| 20260503210211 | 58 | 204 | 1.0 | 0.0 | 0.00 | 0.00 | 0.00 | 59 | 1019.8 |
| 20260503203209 | 60 | 207 | 3.0 | 0.0 | 0.00 | 0.00 | 0.00 | 54 | 1019.5 |
| 20260503200211 | 61 | 261 | 3.0 | 0.0 | 0.00 | 0.00 | 0.00 | 51 | 1019.2 |
| 20260503193210 | 62 | 181 | 3.0 | 0.0 | 0.00 | 0.00 | 0.00 | 49 | 1018.9 |
| 20260503190210 | 64 | 331 | 7.0 | 0.0 | 0.00 | 0.00 | 0.00 | 44 | 1018.5 |
| 20260503183209 | 67 | 200 | 2.0 | 0.0 | 0.00 | 0.00 | 0.00 | 43 | 1017.9 |
| 20260503180210 | 69 | 55 | 4.0 | 0.0 | 0.00 | 0.00 | 0.00 | 47 | 1017.2 |
| 20260503173209 | 70 | 307 | 7.0 | 0.0 | 0.00 | 0.00 | 0.00 | 44 | 1017.3 |
| 20260503170211 | 71 | 355 | 9.0 | 0.0 | 0.00 | 0.00 | 0.00 | 42 | 1017.2 |
| 20260503160211 | 74 | 208 | 6.0 | 0.0 | 0.00 | 0.00 | 0.00 | 37 | 1016.7 |
| 20260503150209 | 77 | 169 | 12.0 | 0.0 | 0.00 | 0.00 | 0.00 | 25 | 1016.8 |
| 20260503140210 | 78 | 213 | 10.0 | 0.0 | 0.00 | 0.00 | 0.00 | 25 | 1017.2 |
| 20260503130210 | 76 | 179 | 7.0 | 0.0 | 0.00 | 0.00 | 0.00 | 36 | 1018.1 |
| 20260503120210 | 75 | 180 | 7.0 | 0.0 | 0.00 | 0.00 | 0.00 | 40 | 1018.6 |
| 20260503110210 | 74 | 161 | 10.0 | 0.0 | 0.00 | 0.00 | 0.00 | 36 | 1019.1 |
| 20260503100212 | 72 | 40 | 5.0 | 0.0 | 0.00 | 0.00 | 0.00 | 42 | 1019.6 |
| 20260503090210 | 67 | 288 | 4.0 | 0.0 | 0.00 | 0.00 | 0.00 | 54 | 1020.4 |
| 20260503080212 | 59 | 261 | 2.0 | 0.0 | 0.00 | 0.00 | 0.00 | 67 | 1020.7 |
| 20260503070211 | 52 | 232 | 4.0 | 0.0 | 0.00 | 0.00 | 0.00 | 81 | 1020.9 |
| 20260503060211 | 49 | 192 | 2.0 | 0.0 | 0.00 | 0.00 | 0.00 | 84 | 1020.9 |
| 20260503053211 | 46 | 192 | 0.0 | 0.0 | 0.00 | 0.00 | 0.00 | 91 | 1020.9 |
| 20260503050212 | 43 | 192 | 1.0 | 0.0 | 0.00 | 0.00 | 0.00 | 92 | 1020.8 |